Weather History for Belleville, IL

Change the Weather History Date:

Saturday, April 20, 2013

  Actual Average Record
Temperature  
Mean Temperature 42 °F -  
Max Temperature 55 °F 70 °F 86 °F (1987)
Min Temperature 30 °F 49 °F 26 °F (1983)
Degree Days  
Heating Degree Days 22    
Growing Degree Days 0 (Base 50)    
Moisture  
Dew Point 29 °F    
Average Humidity 53    
Maximum Humidity 89    
Minimum Humidity 33    
Precipitation  
Precipitation 0.00 in - - ()
Sea Level Pressure  
Sea Level Pressure 30.26 in    
Wind  
Wind Speed 4 mph (NE)    
Max Wind Speed 10 mph    
Max Gust Speed -    
Visibility 8 miles    
Events Rain    
Averages and records for this station are not official NWS values.
T = Trace of Precipitation, MM = Missing Value Source: NWS Daily Summary

Daily Weather History Graph

Daily Weather History Graph

Search for Another Location

Airport:

Trip Planner

Search our weather history database for the weather conditions in past years. The results will help you decide how hot, cold, wet, or windy it might be!

Date:

Astronomy

Apr. 20, 2013 Rise Set
Actual Time 6:15 AM CDT 7:41 PM CDT
Civil Twilight 5:48 AM CDT 8:08 PM CDT
Nautical Twilight 5:14 AM CDT 8:42 PM CDT
Astronomical Twilight 4:39 AM CDT 9:17 PM CDT
Moon 2:28 PM CDT (4/20) 3:01 AM CDT (4/20)
Length of Visible Light 14h 20m
Length of Day
13h 25m
Waxing Gibbous, 71% of the Moon is Illuminated
Apr 20
Waxing Gibbous
Apr 25
Full
May 2
Last Quarter
May 9
New
May 17
First Quarter

Hourly Weather History & Observations

Time (CDT) Temp. Windchill Dew Point Humidity Pressure Visibility Wind Dir Wind Speed Gust Speed Precip Events Conditions
12:55 AM 36.1 °F 32.3 °F 27.5 °F 71% 30.09 in 10.0 mi WSW 4.6 mph - N/A   Clear
1:55 AM 36.3 °F - 28.4 °F 73% 30.10 in 10.0 mi Calm Calm - N/A   Clear
2:55 AM 34.0 °F - 28.6 °F 81% 30.11 in 10.0 mi Calm Calm - N/A   Clear
3:55 AM 33.6 °F - 29.5 °F 85% 30.14 in 10.0 mi Calm Calm - N/A   Clear
4:55 AM 34.0 °F 31.0 °F 28.4 °F 80% 30.17 in 10.0 mi North 3.5 mph - N/A   Clear
5:55 AM 34.5 °F - 27.7 °F 76% 30.19 in 10.0 mi Calm Calm - N/A   Clear
6:55 AM 30.9 °F - 28.0 °F 89% 30.22 in 10.0 mi Calm Calm - N/A   Clear
7:55 AM 37.6 °F - 32.9 °F 83% 30.25 in 10.0 mi Calm Calm - N/A   Clear
8:55 AM 43.3 °F 39.9 °F 30.7 °F 61% 30.27 in 10.0 mi North 5.8 mph - N/A   Clear
9:55 AM 45.1 °F - 29.8 °F 55% 30.28 in 10.0 mi Calm Calm - N/A   Clear
10:55 AM 47.3 °F - 28.6 °F 48% 30.30 in 10.0 mi Variable 3.5 mph - N/A   Clear
11:55 AM 50.2 °F - 30.9 °F 48% 30.30 in 10.0 mi NW 10.4 mph - N/A   Clear
12:55 PM 51.6 °F - 30.2 °F 44% 30.30 in 10.0 mi NNW 9.2 mph - N/A   Partly Cloudy
1:55 PM 52.9 °F - 28.2 °F 39% 30.29 in 10.0 mi NNW 6.9 mph - N/A   Partly Cloudy
2:55 PM 54.0 °F - 26.2 °F 34% 30.28 in 10.0 mi Calm Calm - N/A   Clear
3:55 PM 55.2 °F - 31.1 °F 40% 30.27 in 10.0 mi East 8.1 mph - N/A   Clear
4:40 PM 55.4 °F - 30.2 °F 38% 30.27 in 1.2 mi Variable 5.8 mph - N/A   Haze
4:55 PM 55.2 °F - 28.0 °F 35% 30.27 in 1.2 mi NNE 4.6 mph - N/A   Haze
5:22 PM 55.4 °F - 26.6 °F 33% 30.27 in 1.8 mi East 3.5 mph - N/A   Haze
5:37 PM 53.6 °F - 24.8 °F 33% 30.27 in 3.0 mi Calm Calm - N/A   Haze
5:51 PM 53.6 °F - 28.4 °F 38% 30.27 in 1.2 mi ENE 6.9 mph - N/A   Haze
5:55 PM 54.3 °F - 27.1 °F 35% 30.27 in 1.5 mi ENE 6.9 mph - N/A   Haze
6:07 PM 53.6 °F - 26.6 °F 35% 30.27 in 1.2 mi Variable 4.6 mph - N/A   Haze
6:19 PM 53.6 °F - 26.6 °F 35% 30.27 in 1.5 mi Variable 5.8 mph - N/A   Haze
6:28 PM 53.6 °F - 28.4 °F 38% 30.27 in 1.2 mi NE 8.1 mph - N/A   Haze
6:55 PM 52.2 °F - 30.0 °F 43% 30.33 in 10.0 mi ENE 6.9 mph - N/A   Clear
7:55 PM 48.9 °F - 30.7 °F 50% 30.29 in 10.0 mi ENE 5.8 mph - N/A   Clear
8:04 PM 48.2 °F - 30.2 °F 50% 30.30 in 10.0 mi ENE 4.6 mph - N/A Rain Light Rain
8:13 PM 48.2 °F - 30.2 °F 50% 30.30 in 10.0 mi ENE 3.5 mph - N/A   Clear
8:55 PM 47.5 °F - 30.2 °F 51% 30.31 in 10.0 mi East 5.8 mph - 0.00 in   Clear
9:55 PM 46.0 °F 43.1 °F 32.5 °F 59% 30.34 in 10.0 mi East 5.8 mph - N/A   Clear
10:55 PM 44.8 °F 41.6 °F 34.7 °F 68% 30.36 in 10.0 mi ENE 5.8 mph - N/A   Clear
11:55 PM 44.6 °F 40.7 °F 34.3 °F 67% 30.36 in 10.0 mi East 6.9 mph - N/A   Clear